Location: Avoca
(45.7167°N, 74.7000°W)
Time: 20:19:13
(UTC+00:00)

BlueWalker 3 - Pass Details

Date: 03 December 2022
Orbit: 499 x 517 km, 53.2° (Epoch: 04 February)

Event Time Altitude Azimuth Distance (km) Brightness Sun altitude
Rises 22:04:29 0° 284° (WNW) 2,630 6.5 -8.4°
Reaches altitude 10° 22:06:56 10° 297° (WNW) 1,740 5.3 -8.8°
Enters shadow 22:13:14 13° 51° (NE) 1,573 3.8 -9.8°
Exits shadow 22:48:21 -68° 102° (ESE) 12,347 8.9 -15.6°
